DW5462 Weather Reports


time (UTC)temp
C
wind
direction
speed
KPH
gust
KPH
rain 1hr
cm
rain 24hr
cm
rain mn
cm
humidity
%
barometer
mb
20260902014519 10 256 0.0 0.0 0.00 0.00 0.00 90 1021.6
20260902013011 10 256 0.0 0.0 0.00 0.00 0.00 90 1021.6
20260902010003 10 256 0.0 0.0 0.00 0.00 0.00 90 1021.6
20260902004603 10 256 0.0 0.0 0.00 0.00 0.00 89 1021.7
20260902003133 10 256 0.0 0.0 0.00 0.00 0.00 89 1021.8
20260902000103 11 256 0.0 0.0 0.00 0.00 0.00 89 1021.9
20260901234557 11 256 0.0 0.0 0.00 0.00 0.00 88 1022.0
20260901233057 11 256 0.0 0.0 0.00 0.00 0.00 88 1022.0
20260901230051 11 256 0.0 0.0 0.00 0.00 0.00 88 1022.0
20260901224551 11 256 0.0 0.0 0.00 0.00 0.00 87 1022.1
20260901223050 11 256 0.0 0.0 0.00 0.00 0.00 87 1022.1
20260901220050 12 256 0.0 0.0 0.00 0.00 0.00 86 1022.0
20260901214549 12 256 0.0 0.0 0.00 0.00 0.00 85 1022.0
20260901213049 12 256 0.0 0.0 0.00 0.00 0.00 84 1021.9
20260901204546 13 256 0.0 0.0 0.00 0.00 0.00 81 1021.9
20260901203046 13 256 0.0 0.0 0.00 0.00 0.00 81 1021.8
20260901200045 15 256 0.0 0.0 0.00 0.00 0.00 78 1021.6
20260901194545 15 256 0.0 0.0 0.00 0.00 0.00 76 1021.7
20260901193044 15 256 0.0 0.0 0.00 0.00 0.00 74 1021.7
20260901190100 17 256 0.0 0.0 0.00 0.00 0.00 71 1021.6
20260901184544 17 256 0.0 0.0 0.00 0.00 0.00 69 1021.5
20260901183043 18 256 0.0 0.0 0.00 0.00 0.00 67 1021.3
20260901180040 20 256 0.0 0.0 0.00 0.00 0.00 61 1021.0
20260901174547 20 256 0.0 0.0 0.00 0.05 0.00 58 1021.0
20260901173036 20 256 0.0 0.0 0.00 0.05 0.00 57 1020.9
20260901170037 20 256 0.0 4.8 0.00 0.05 0.00 55 1021.0
20260901164540 21 257 0.0 6.4 0.00 0.15 0.00 54 1020.9
20260901163100 21 355 0.0 3.2 0.00 0.15 0.00 53 1021.1
20260901160037 22 248 0.0 9.7 0.00 0.15 0.00 50 1021.2
20260901154549 22 269 0.0 9.7 0.00 0.15 0.00 50 1021.1
20260901153040 22 272 0.0 4.8 0.00 0.15 0.00 49 1021.1
20260901150033 22 269 0.0 17.7 0.00 0.15 0.00 49 1021.1
20260901144531 21 360 0.0 6.4 0.00 0.15 0.00 51 1021.1
20260901143031 22 281 0.0 6.4 0.00 0.15 0.00 50 1021.2
20260901140032 22 38 0.0 9.7 0.00 0.15 0.00 51 1021.3
20260901134531 22 23 1.6 6.4 0.00 0.15 0.00 52 1021.4
20260901133029 22 277 0.0 6.4 0.00 0.15 0.00 50 1021.4
20260901130028 21 271 0.0 14.5 0.00 0.15 0.00 54 1021.7
20260901124527 21 272 1.6 17.7 0.00 0.15 0.00 53 1021.8
20260901123025 21 269 0.0 6.4 0.00 0.15 0.00 54 1021.8
20260901120021 20 277 0.0 12.9 0.00 0.15 0.00 55 1022.0
20260901114523 20 265 1.6 11.3 0.00 0.15 0.00 57 1022.0
20260901113020 21 275 1.6 9.7 0.00 0.15 0.00 57 1022.0
20260901110017 20 269 0.0 8.0 0.00 0.15 0.00 61 1022.2
20260901104529 20 263 1.6 12.9 0.00 0.15 0.00 61 1022.1
20260901103020 19 263 0.0 4.8 0.00 0.15 0.00 64 1022.2
20260901100013 20 264 1.6 16.1 0.00 0.15 0.00 63 1022.3
20260901094519 20 271 1.6 11.3 0.00 0.15 0.00 66 1022.2
20260901093008 19 268 3.2 12.9 0.00 0.15 0.00 68 1022.2
20260901090006 18 270 1.6 11.3 0.00 0.15 0.00 71 1022.3
20260901084605 18 271 1.6 9.7 0.00 0.15 0.00 73 1022.3
20260901083058 18 263 3.2 11.3 0.00 0.15 0.00 73 1022.2
20260901080108 17 272 0.0 6.4 0.00 0.15 0.00 76 1022.1
20260901074551 17 273 0.0 3.2 0.00 0.15 0.00 77 1022.1
20260901073046 17 273 0.0 3.2 0.00 0.15 0.00 79 1021.9
20260901070055 16 273 1.6 9.7 0.00 0.15 0.00 81 1021.9
20260901064545 16 265 0.0 8.0 0.00 0.15 0.00 84 1021.8
20260901063037 15 268 0.0 0.0 0.00 0.15 0.00 89 1021.8
20260901060036 12 268 0.0 0.0 0.00 0.15 0.00 95 1021.8
20260901054527 11 268 0.0 0.0 0.00 0.15 0.00 93 1021.6
20260901053023 10 268 0.0 0.0 0.00 0.15 0.00 92 1021.6
20260901050017 11 268 0.0 0.0 0.00 0.15 0.00 91 1021.6
20260901044518 11 268 0.0 0.0 0.00 0.33 0.00 90 1021.4
20260901043016 11 268 0.0 0.0 0.00 0.33 0.00 90 1021.3
20260901040013 11 268 0.0 0.0 0.00 0.33 0.00 90 1021.3
20260901034512 12 268 0.0 0.0 0.00 0.33 0.00 89 1021.2
20260901033021 12 268 0.0 0.0 0.00 0.33 0.00 89 1021.2
20260901030004 12 268 0.0 0.0 0.00 0.33 0.00 89 1021.2
20260901024501 12 268 0.0 0.0 0.00 0.33 0.00 88 1021.1
20260901023102 12 268 0.0 0.0 0.00 0.33 0.00 88 1021.2
20260901021659 13 268 0.0 0.0 0.00 0.33 0.00 88 1021.0
20260901020058 13 268 0.0 0.0 0.00 0.33 0.00 88 1021.1